DUBAISAT-2

Last updated on Thu Jul 03 2025 00:02:30 GMT+0000 (Coordinated Universal Time)

1 39419U 13066D 25183.53930810 .00003699 00000+0 25398-3 0 9996 2 39419 97.4330 179.3092 0012927 146.6626 213.5418 15.06509015633689
UTC large
Height (km)
Speed (km/s)
/
Latitude / Longitude
Inclination (degrees)
Orbital Period (minutes)
Azimuth
Elevation
Range (km)
Doppler Factor

Next 0 passes for location: London (51.5072 / 0.1276)

Sorry there are no passes over London.